Location: Degersen
(52.2871°N, 9.5716°E)
Time: 04:23:23
(UTC+00:00)

COBE Rocket - Visible Passes

Search period start: 21 April 2026 00:00
Search period end: 01 May 2026 00:00
Orbit: 675 x 772 km, 97.1° (Epoch: 20 April)

Date Brightness Start Highest point End Pass type
(mag) Time Alt. Az. Time Alt. Az. Time Alt. Az.
21 Apr 5.9 19:40:10 10° N 19:44:41 34° WNW 19:49:15 10° SW visible
22 Apr 7.0 20:30:28 10° NNW 20:33:28 16° NW 20:36:29 10° W visible
23 Apr 5.9 19:40:31 10° N 19:45:02 33° WNW 19:49:35 10° SW visible
24 Apr 7.1 20:30:52 10° NNW 20:33:48 16° NW 20:36:47 10° W visible
25 Apr 6.0 19:40:53 10° N 19:45:23 33° WNW 19:49:55 10° SW visible
26 Apr 7.1 20:31:14 10° NNW 20:34:08 15° NW 20:37:04 10° W visible
27 Apr 6.1 19:41:15 10° N 19:45:44 32° WNW 19:50:15 10° SW visible
28 Apr 7.1 20:31:38 10° NNW 20:34:29 15° NW 20:37:20 10° W visible
29 Apr 6.1 19:41:37 10° N 19:46:05 31° WNW 19:50:34 10° SW visible
30 Apr 7.1 20:32:01 10° NNW 20:34:49 15° NW 20:37:37 10° W visible
